QPF
0.00 0.00 0.00 0.00 0.00 0.00 0.00 0.00 0.00 0.00 0.00 0.00 0.00 0.00 0.00 0.00 0.00 0.06 0.00 0.00 0.00 0.00 0.00 0.00 0.00 0.00 0.00 0.00 0.00 0.00 0.00 0.00 0.00 0.00 0.00 0.00 0.00 0.00 0.00 0.00 0.00 0.00 0.00 0.00 0.00 0.00 0.00 0.00 0.00
0.00 0.00 0.00 0.00 0.00 0.00 0.00 0.00 0.00 0.00 0.00 0.00 0.00 0.00 0.00 0.00 0.00 0.00 0.01 0.00 0.00 0.00 0.00 0.00 0.00 0.00 0.00 0.00 0.00 0.00 0.00 0.00 0.00 0.00 0.00 0.00 0.00 0.00 0.00 0.00 0.00 0.00 0.00 0.00 0.00 0.00 0.00 0.00 0.00
0.00 0.00 0.00 0.00 0.00 0.00 0.00 0.00 0.00 0.00 0.00 0.00 0.00 0.00 0.00 0.00 0.00 0.00 0.00 0.00 0.00 0.00 0.00 0.00 0.00 0.00 0.00 0.00 0.00 0.00 0.00 0.00 0.00 0.00 0.00 0.00 0.00 0.00 0.00 0.00 0.00 0.00 0.00 0.00 0.00 0.00 0.00 0.00 0.00
0.00 0.00 0.00 0.00 0.00 0.00 0.00 0.00 0.00 0.00 0.00 0.00 0.00 0.00 0.00 0.00 0.00 0.00 0.00 0.00 0.00 0.00 0.00 0.00 0.00 0.00 0.00 0.00 0.00 0.00 0.00 0.00 0.00 0.00 0.00 0.00 0.00 0.00 0.00 0.00 0.00 0.00 0.00 0.00 0.00 0.00 0.00 0.00 0.00
0.00 0.00 0.00 0.00 0.00 0.00 0.00 0.00 0.00 0.00 0.00 0.00 0.00 0.00 0.00 0.00 0.00 0.00 0.00 0.00 0.00 0.00 0.00 0.00 0.00 0.00 0.00 0.00 0.00 0.00 0.00 0.00 0.00 0.00 0.00 0.00 0.00 0.00 0.00 0.00 0.00 0.00 0.00 0.00 0.00 0.00 0.00 0.00 0.00
0.00 0.00 0.00 0.00 0.00 0.00 0.00 0.00 0.00 0.00 0.00 0.00 0.00 0.00 0.00 0.00 0.00 0.00 0.00 0.00 0.00 0.00 0.00 0.00 0.00 0.00 0.00 0.00 0.00 0.00 0.00 0.00 0.00 0.00 0.00 0.00 0.00 0.00 0.00 0.00 0.00 0.00 0.00 0.00 0.00 0.00 0.00 0.00 0.00
0.00 0.00 0.00 0.00 0.00 0.00 0.00 0.00 0.00 0.00 0.00 0.00 0.00 0.00 0.00 0.00 0.00 0.00 0.00 0.00 0.00 0.00 0.00 0.00 0.00 0.00 0.00 0.00 0.00 0.00 0.00 0.00 0.00 0.00 0.00 0.00 0.00 0.00 0.00 0.00 0.00 0.00 0.00 0.00 0.00 0.00 0.00 0.00 0.00
0.00 0.00 0.00 0.00 0.00 0.00 0.00 0.00 0.00 0.00 0.00 0.00 0.00 0.00 0.00 0.00 0.00 0.00 0.00 0.00 0.00 0.00 0.00 0.00 0.00 0.00 0.00 0.00 0.00 0.00 0.00 0.00 0.00 0.00 0.00 0.00 0.00 0.00 0.00 0.00 0.00 0.00 0.00 0.00 0.00 0.00 0.00 0.00 0.00
0.00 0.00 0.00 0.00 0.00 0.00 0.00 0.00 0.00 0.00 0.00 0.00 0.00 0.00 0.00 0.00 0.00 0.00 0.00 0.00 0.00 0.00 0.00 0.00 0.00 0.00 0.00 0.00 0.00 0.00 0.00 0.00 0.00 0.00 0.00 0.00 0.00 0.00 0.00 0.00 0.00 0.00 0.00 0.00 0.00 0.00 0.00 0.00 0.00
0.00 0.00 0.00 0.00 0.00 0.00 0.00 0.00 0.00 0.00 0.00 0.00 0.00 0.00 0.00 0.00 0.00 0.00 0.00 0.00 0.01 0.00 0.00 0.00 0.00 0.00 0.00 0.00 0.00 0.00 0.00 0.00 0.00 0.00 0.00 0.00 0.00 0.00 0.00 0.00 0.00 0.00 0.00 0.00 0.00 0.00 0.00 0.00 0.00
0.00 0.00 0.00 0.00 0.00 0.00 0.00 0.00 0.00 0.00 0.00 0.00 0.00 0.00 0.00 0.00 0.00 0.00 0.00 0.00 0.01 0.00 0.00 0.01 0.00 0.00 0.00 0.00 0.00 0.00 0.00 0.00 0.00 0.00 0.00 0.00 0.00 0.00 0.00 0.00 0.00 0.00 0.00 0.00 0.00 0.00 0.00 0.00 0.00
0.00 0.00 0.00 0.00 0.00 0.00 0.00 0.00 0.00 0.00 0.00 0.00 0.00 0.00 0.00 0.00 0.00 0.00 0.00 0.00 0.00 0.01 0.05 0.05 0.03 0.01 0.00 0.00 0.00 0.00 0.00 0.00 0.00 0.00 0.00 0.00 0.00 0.00 0.00 0.00 0.00 0.00 0.00 0.00 0.00 0.00 0.00 0.00 0.00
0.00 0.00 0.00 0.00 0.00 0.00 0.00 0.00 0.00 0.00 0.00 0.00 0.00 0.00 0.00 0.00 0.00 0.00 0.00 0.00 0.00 0.04 0.09 0.08 0.12 0.04 0.00 0.00 0.00 0.00 0.00 0.00 0.00 0.00 0.00 0.00 0.00 0.00 0.00 0.00 0.00 0.00 0.00 0.00 0.00 0.00 0.00 0.00 0.00
0.00 0.00 0.00 0.00 0.00 0.00 0.00 0.00 0.00 0.00 0.00 0.00 0.00 0.00 0.00 0.00 0.00 0.00 0.00 0.00 0.00 0.02 0.11 0.15 0.12 0.10 0.03 0.00 0.00 0.00 0.00 0.00 0.00 0.00 0.00 0.00 0.00 0.00 0.00 0.00 0.00 0.00 0.00 0.00 0.00 0.00 0.00 0.00 0.00
0.00 0.00 0.00 0.00 0.00 0.00 0.00 0.00 0.00 0.00 0.00 0.00 0.00 0.00 0.00 0.00 0.00 0.00 0.00 0.00 0.00 0.00 0.00 0.03 0.07 0.17 0.22 0.06 0.00 0.00 0.00 0.00 0.00 0.00 0.00 0.00 0.00 0.01 0.02 0.01 0.00 0.00 0.00 0.00 0.00 0.00 0.00 0.00 0.00
0.00 0.00 0.00 0.00 0.00 0.00 0.00 0.00 0.00 0.00 0.00 0.00 0.00 0.00 0.00 0.00 0.00 0.00 0.00 0.00 0.00 0.00 0.00 0.00 0.00 0.01 0.04 0.02 0.00 0.00 0.00 0.02 0.02 0.01 0.01 0.00 0.02 0.03 0.05 0.05 0.03 0.01 0.00 0.00 0.02 0.01 0.01 0.00 0.00
0.00 0.00 0.00 0.00 0.00 0.00 0.00 0.00 0.00 0.00 0.00 0.00 0.00 0.00 0.00 0.00 0.00 0.00 0.00 0.00 0.00 0.00 0.00 0.00 0.00 0.00 0.00 0.00 0.00 0.00 0.00 0.00 0.01 0.03 0.07 0.07 0.16 0.22 0.25 0.21 0.17 0.06 0.01 0.00 0.01 0.04 0.06 0.08 0.03
0.00 0.00 0.00 0.00 0.00 0.00 0.00 0.00 0.00 0.00 0.00 0.00 0.00 0.00 0.00 0.00 0.00 0.00 0.00 0.00 0.00 0.00 0.00 0.00 0.00 0.00 0.00 0.00 0.00 0.00 0.00 0.00 0.00 0.00 0.02 0.11 0.17 0.29 0.31 0.32 0.29 0.16 0.09 0.05 0.04 0.04 0.05 0.07 0.02
0.00 0.00 0.00 0.00 0.00 0.00 0.00 0.00 0.00 0.00 0.00 0.00 0.00 0.00 0.00 0.00 0.00 0.00 0.00 0.00 0.00 0.00 0.00 0.00 0.00 0.00 0.00 0.00 0.00 0.00 0.00 0.00 0.00 0.00 0.00 0.02 0.10 0.14 0.12 0.13 0.07 0.06 0.05 0.08 0.12 0.15 0.17 0.14 0.14
0.00 0.00 0.00 0.00 0.00 0.00 0.00 0.00 0.00 0.00 0.00 0.00 0.00 0.00 0.00 0.00 0.00 0.00 0.00 0.00 0.00 0.00 0.00 0.00 0.00 0.00 0.00 0.00 0.00 0.00 0.00 0.00 0.00 0.00 0.00 0.00 0.01 0.04 0.04 0.10 0.09 0.06 0.05 0.10 0.18 0.20 0.15 0.12 0.17
0.00 0.00 0.00 0.00 0.00 0.00 0.00 0.00 0.00 0.00 0.00 0.00 0.00 0.00 0.00 0.00 0.00 0.00 0.00 0.00 0.00 0.00 0.00 0.00 0.00 0.00 0.00 0.00 0.00 0.00 0.00 0.00 0.00 0.00 0.00 0.01 0.00 0.01 0.08 0.12 0.15 0.26 0.34 0.19 0.10 0.05 0.05 0.07 0.03
0.00 0.00 0.00 0.00 0.00 0.00 0.00 0.00 0.00 0.00 0.00 0.00 0.00 0.00 0.00 0.00 0.00 0.00 0.00 0.00 0.00 0.00 0.00 0.00 0.00 0.00 0.00 0.00 0.00 0.00 0.00 0.00 0.01 0.00 0.02 0.04 0.01 0.02 0.06 0.09 0.12 0.20 0.13 0.03 0.00 0.01 0.09 0.15 0.11
0.00 0.00 0.00 0.00 0.00 0.00 0.00 0.00 0.00 0.00 0.00 0.00 0.00 0.00 0.00 0.00 0.00 0.00 0.00 0.00 0.00 0.00 0.00 0.00 0.00 0.00 0.00 0.00 0.00 0.00 0.00 0.00 0.00 0.01 0.01 0.01 0.00 0.00 0.01 0.01 0.03 0.05 0.06 0.09 0.10 0.06 0.07 0.10 0.10
0.00 0.00 0.00 0.00 0.00 0.00 0.00 0.00 0.00 0.00 0.00 0.00 0.00 0.00 0.00 0.00 0.00 0.00 0.00 0.00 0.00 0.00 0.00 0.00 0.00 0.00 0.00 0.00 0.00 0.00 0.00 0.00 0.00 0.00 0.00 0.00 0.00 0.00 0.00 0.00 0.00 0.00 0.00 0.01 0.03 0.05 0.07 0.08 0.09
0.00 0.00 0.00 0.00 0.00 0.00 0.00 0.00 0.00 0.00 0.00 0.00 0.00 0.00 0.00 0.00 0.00 0.00 0.00 0.00 0.00 0.00 0.00 0.00 0.00 0.00 0.00 0.00 0.00 0.00 0.00 0.00 0.00 0.00 0.00 0.00 0.00 0.00 0.00 0.00 0.00 0.00 0.00 0.00 0.00 0.00 0.00 0.01 0.02
0.00 0.00 0.00 0.00 0.00 0.00 0.00 0.00 0.00 0.00 0.00 0.00 0.00 0.00 0.00 0.00 0.00 0.00 0.00 0.00 0.00 0.00 0.00 0.00 0.00 0.00 0.00 0.00 0.00 0.00 0.00 0.00 0.00 0.00 0.00 0.00 0.00 0.00 0.00 0.00 0.00 0.00 0.00 0.00 0.00 0.00 0.00 0.00 0.00
0.00 0.00 0.00 0.00 0.00 0.01 0.00 0.00 0.00 0.00 0.00 0.00 0.00 0.00 0.00 0.00 0.00 0.00 0.00 0.00 0.00 0.00 0.00 0.00 0.00 0.00 0.00 0.00 0.00 0.00 0.00 0.00 0.00 0.00 0.00 0.00 0.00 0.00 0.00 0.00 0.00 0.00 0.00 0.00 0.00 0.00 0.00 0.00 0.00
0.00 0.00 0.00 0.00 0.01 0.02 0.01 0.00 0.00 0.00 0.00 0.00 0.00 0.00 0.00 0.00 0.00 0.00 0.00 0.00 0.00 0.00 0.00 0.00 0.00 0.00 0.00 0.00 0.00 0.00 0.00 0.00 0.00 0.00 0.00 0.00 0.00 0.00 0.00 0.00 0.00 0.00 0.00 0.00 0.00 0.00 0.00 0.00 0.00
0.00 0.00 0.00 0.00 0.00 0.03 0.03 0.01 0.00 0.01 0.00 0.00 0.00 0.00 0.00 0.00 0.00 0.00 0.00 0.00 0.00 0.00 0.00 0.00 0.00 0.00 0.00 0.00 0.00 0.00 0.00 0.00 0.00 0.00 0.00 0.00 0.00 0.00 0.00 0.00 0.00 0.00 0.00 0.00 0.00 0.00 0.00 0.00 0.00
0.00 0.00 0.00 0.03 0.02 0.01 0.02 0.02 0.00 0.00 0.00 0.00 0.00 0.00 0.00 0.00 0.00 0.00 0.00 0.00 0.00 0.00 0.00 0.00 0.00 0.00 0.00 0.00 0.00 0.00 0.00 0.00 0.00 0.00 0.00 0.00 0.00 0.00 0.00 0.00 0.00 0.00 0.00 0.00 0.00 0.00 0.00 0.00 0.00
MSLP
1009.55 1008.71 1008.25 1007.30 1006.53 1004.13 1002.05 1000.10 998.15 996.61 996.59 997.09 997.83 998.38 998.62 998.52 998.34 1000.58 1001.46 1001.87 1003.09 1004.77 1005.77 1006.42 1006.95 1007.62 1008.10 1008.71 1009.14 1009.60 1010.01 1010.43 1010.82 1011.25 1011.65 1011.90 1012.14 1012.50 1012.70 1012.92 1013.22 1013.38 1013.51 1013.79 1014.12 1014.35 1014.63 1014.87 1015.04
1009.18 1008.09 1007.21 1006.24 1004.84 1002.89 1000.91 999.34 997.89 996.64 996.72 997.80 998.43 998.74 998.91 999.43 999.47 1001.11 1002.28 1002.34 1003.23 1004.77 1005.95 1006.72 1007.26 1007.67 1008.05 1008.58 1009.11 1009.55 1010.07 1010.53 1011.00 1011.42 1011.90 1012.23 1012.40 1012.65 1012.91 1013.13 1013.30 1013.49 1013.71 1014.00 1014.29 1014.53 1014.77 1015.03 1015.21
1009.45 1008.16 1006.87 1005.23 1003.69 1001.95 1000.32 998.43 997.05 996.30 996.95 997.98 998.47 999.01 999.12 1000.00 1000.46 1001.11 1002.34 1002.37 1003.86 1005.07 1005.75 1006.86 1007.52 1007.84 1008.29 1008.60 1009.10 1009.51 1009.99 1010.48 1010.99 1011.41 1011.83 1012.25 1012.64 1012.92 1013.21 1013.34 1013.45 1013.65 1013.84 1014.09 1014.35 1014.69 1014.96 1015.12 1015.33
1008.18 1007.33 1006.41 1004.06 1002.25 1000.93 1000.07 998.52 996.97 996.88 997.71 998.53 998.69 999.17 999.48 1000.43 1000.88 1001.63 1002.46 1002.59 1003.94 1005.15 1005.64 1006.97 1007.53 1007.87 1008.22 1008.57 1009.10 1009.56 1010.04 1010.50 1010.90 1011.37 1011.79 1012.12 1012.56 1013.01 1013.26 1013.45 1013.61 1013.74 1013.90 1014.15 1014.42 1014.67 1015.07 1015.30 1015.42
1007.52 1006.20 1005.01 1003.08 1001.72 1000.54 999.12 998.11 997.12 996.85 997.18 998.08 998.89 999.27 999.68 1000.63 1001.44 1001.90 1002.57 1002.72 1003.65 1004.76 1005.92 1006.89 1007.50 1007.80 1008.22 1008.63 1009.04 1009.52 1010.03 1010.52 1011.02 1011.33 1011.75 1012.14 1012.46 1012.85 1013.24 1013.51 1013.69 1013.90 1014.11 1014.20 1014.26 1014.55 1014.90 1015.14 1015.40
1006.55 1005.85 1004.22 1002.37 1001.12 999.81 998.82 998.17 997.48 997.11 997.64 998.13 998.73 999.35 999.92 1000.42 1001.02 1001.78 1002.21 1002.70 1003.31 1004.49 1005.81 1006.89 1007.63 1008.06 1008.39 1008.75 1009.22 1009.59 1010.00 1010.51 1010.94 1011.39 1011.66 1012.08 1012.46 1012.76 1013.05 1013.27 1013.53 1013.85 1014.09 1014.29 1014.52 1014.69 1014.79 1014.89 1015.07
1005.75 1004.76 1003.38 1002.04 1000.41 998.87 997.74 997.24 997.05 997.48 998.17 998.60 999.04 999.51 999.75 999.72 1000.60 1001.24 1001.82 1002.13 1002.89 1003.90 1005.37 1006.62 1007.37 1007.93 1008.41 1008.73 1009.07 1009.59 1010.02 1010.54 1010.87 1011.38 1011.77 1012.00 1012.37 1012.62 1012.89 1013.15 1013.36 1013.58 1013.87 1014.09 1014.21 1014.47 1014.79 1015.12 1015.18
1005.55 1004.72 1003.04 1001.43 1000.18 998.83 997.60 997.08 997.89 998.72 999.18 999.45 999.61 999.72 999.94 1000.56 1000.84 1001.34 1001.62 1001.43 1002.16 1003.33 1004.89 1006.37 1006.86 1007.45 1007.94 1008.49 1008.99 1009.42 1009.86 1010.34 1010.93 1011.39 1011.87 1012.16 1012.39 1012.67 1012.78 1012.96 1013.13 1013.38 1013.58 1013.80 1014.06 1014.19 1014.21 1014.41 1014.75
1005.15 1004.31 1002.49 1001.32 1000.04 998.95 997.89 997.88 998.70 999.34 999.84 999.96 999.89 1000.40 1000.54 1000.94 1001.47 1001.18 1001.29 1001.04 1001.41 1002.45 1003.96 1005.27 1006.39 1007.13 1007.44 1008.13 1008.92 1009.51 1010.03 1010.59 1010.93 1011.48 1011.92 1012.31 1012.27 1012.50 1012.60 1012.72 1012.82 1013.06 1013.30 1013.53 1013.75 1013.99 1014.19 1014.26 1014.29
1004.35 1003.16 1002.17 1001.45 1000.03 999.09 998.42 998.19 998.86 999.63 1000.39 1000.81 1000.60 1000.76 1000.56 1001.07 1001.49 1001.25 1000.75 1000.77 1001.75 1002.01 1003.34 1004.41 1006.14 1006.99 1007.10 1007.49 1008.79 1009.12 1009.56 1010.03 1010.80 1011.26 1011.71 1011.92 1011.79 1011.75 1011.76 1011.91 1012.45 1012.59 1012.85 1013.12 1013.39 1013.64 1013.85 1013.98 1013.82
1003.50 1002.38 1002.05 1001.10 1000.13 999.43 999.39 999.45 999.53 999.92 1000.21 1000.72 1000.68 1000.85 1000.93 1000.93 1001.37 1001.21 1000.75 1000.71 1001.09 1001.99 1003.30 1004.22 1005.72 1006.44 1006.55 1006.79 1008.32 1008.97 1009.32 1009.53 1009.89 1010.27 1011.06 1011.35 1011.15 1011.08 1011.10 1011.19 1011.81 1012.37 1012.66 1012.82 1012.92 1013.12 1013.36 1013.34 1013.34
1002.60 1002.15 1001.98 1001.16 1000.18 1000.00 1000.18 1000.33 1000.27 1000.26 1000.36 1000.58 1000.53 1000.42 1000.67 1000.60 1000.99 1000.99 1000.85 1000.72 1001.74 1003.11 1004.80 1007.27 1006.26 1006.03 1007.59 1007.62 1007.40 1008.18 1009.12 1009.01 1009.07 1009.35 1009.77 1010.42 1010.63 1010.41 1010.49 1010.56 1011.03 1011.38 1011.54 1012.03 1012.05 1012.31 1012.44 1012.57 1012.47
1001.67 1001.46 1001.29 1000.94 1000.43 1000.07 1000.45 1000.69 1000.57 1000.35 1000.49 1000.55 1000.70 1000.68 1000.81 1000.84 1000.57 1000.64 1000.93 1000.91 1002.45 1003.89 1005.84 1008.31 1007.97 1007.40 1008.65 1007.63 1006.87 1007.29 1008.00 1008.43 1008.42 1008.55 1008.88 1009.56 1010.18 1010.16 1010.21 1010.30 1010.40 1010.58 1010.61 1010.93 1011.12 1011.19 1011.56 1011.82 1011.93
1001.12 1000.98 1000.85 1000.61 1000.11 1000.12 1000.32 1000.41 1000.36 1000.30 1000.42 1000.28 1000.46 1000.49 1000.61 1000.66 1000.38 1000.56 1000.96 1001.58 1003.10 1004.54 1006.65 1007.51 1008.93 1007.97 1007.74 1007.98 1007.74 1007.48 1007.46 1007.71 1007.94 1008.26 1008.63 1009.35 1010.03 1010.37 1010.53 1010.54 1010.45 1010.25 1010.26 1010.15 1010.45 1010.43 1010.15 1010.38 1010.65
1000.89 1000.47 1000.16 999.91 1000.21 999.86 1000.02 999.86 999.52 999.80 999.56 999.65 999.80 1000.13 1000.40 1000.29 1000.10 1000.34 1000.94 1001.75 1003.33 1004.55 1005.49 1006.18 1007.72 1009.51 1008.69 1007.98 1008.46 1008.07 1007.49 1007.22 1008.10 1008.50 1008.67 1009.30 1009.84 1010.30 1011.30 1011.07 1010.91 1010.59 1010.07 1010.07 1009.87 1009.64 1009.85 1009.83 1009.91
1000.94 1000.54 999.78 999.39 999.51 999.69 999.72 998.83 998.73 998.73 998.98 999.20 999.44 999.86 1000.00 1000.00 1000.27 1000.46 1000.70 1001.56 1002.60 1003.62 1004.87 1005.93 1006.71 1007.79 1008.18 1007.41 1007.66 1007.65 1007.54 1007.48 1008.59 1009.15 1009.11 1009.13 1009.79 1010.29 1010.75 1011.38 1011.39 1010.17 1009.76 1009.90 1009.96 1010.01 1010.78 1010.50 1010.43
1000.58 999.90 999.47 999.31 998.56 998.61 998.81 998.69 998.29 997.12 998.21 998.60 999.08 999.18 999.32 999.54 999.78 999.88 1000.17 1001.36 1002.59 1003.40 1004.28 1004.40 1005.17 1006.70 1007.28 1007.01 1006.77 1006.79 1006.95 1007.43 1008.81 1009.40 1009.48 1010.19 1010.31 1010.27 1011.84 1012.09 1011.74 1010.74 1010.19 1009.87 1009.68 1010.20 1011.57 1009.02 1010.18
999.55 999.69 999.07 998.32 997.84 997.24 997.70 998.21 997.88 997.51 998.01 998.46 998.49 998.48 998.70 999.03 999.41 999.69 1000.13 1001.24 1002.29 1002.71 1003.61 1004.08 1004.60 1005.44 1006.18 1006.50 1006.42 1006.52 1007.04 1007.95 1008.12 1008.25 1009.03 1009.51 1009.73 1010.04 1012.31 1013.43 1013.30 1011.04 1010.64 1010.77 1010.58 1010.01 1010.57 1010.61 1010.67
999.45 998.74 998.18 997.78 997.10 997.09 997.51 997.78 997.63 997.37 997.57 997.75 998.05 998.26 998.35 998.61 998.98 999.66 1000.16 1001.00 1001.72 1002.49 1003.47 1004.03 1004.45 1005.26 1005.72 1006.26 1006.79 1007.13 1007.45 1007.81 1008.05 1008.58 1008.62 1008.96 1009.68 1010.05 1010.74 1011.04 1010.86 1010.91 1010.98 1011.22 1012.00 1012.07 1012.04 1011.26 1011.41
999.33 998.59 997.61 997.53 997.18 997.02 997.25 997.58 997.61 997.20 996.94 997.19 997.86 998.05 998.15 998.42 998.87 999.49 1000.12 1000.91 1002.23 1003.28 1004.17 1004.59 1005.17 1005.75 1006.11 1006.46 1006.75 1007.07 1007.26 1007.24 1007.11 1007.46 1008.18 1008.63 1008.52 1009.04 1009.75 1010.11 1010.32 1010.81 1011.49 1012.09 1013.24 1013.49 1013.24 1012.82 1012.91
998.69 998.34 997.74 997.53 997.52 997.78 998.11 998.14 998.11 997.67 997.25 997.25 997.56 998.07 998.37 998.69 999.26 1000.07 1001.03 1001.85 1002.92 1003.97 1004.71 1005.36 1005.88 1006.38 1006.79 1006.52 1006.63 1006.97 1007.20 1007.20 1007.14 1007.30 1007.91 1008.41 1008.15 1008.16 1008.79 1009.43 1009.62 1010.46 1010.77 1012.36 1014.46 1013.56 1013.40 1012.47 1012.12
997.74 998.12 997.97 998.14 998.36 998.06 998.42 998.09 998.05 998.27 997.86 997.36 997.69 998.58 999.17 999.15 1000.00 1000.81 1001.77 1002.95 1004.16 1005.22 1006.00 1006.44 1006.69 1007.01 1007.34 1006.95 1006.79 1007.19 1007.53 1007.65 1008.16 1008.30 1008.30 1008.37 1008.20 1008.12 1008.38 1009.02 1009.66 1009.97 1010.61 1011.29 1011.64 1010.81 1012.42 1012.20 1011.24
997.04 997.47 998.02 998.42 998.88 999.29 998.70 998.31 997.68 997.67 997.97 997.80 998.01 998.77 999.36 999.90 1000.66 1001.90 1002.90 1004.13 1005.22 1006.10 1006.78 1007.25 1007.61 1007.96 1008.05 1007.80 1007.65 1007.82 1008.12 1008.48 1008.64 1008.69 1008.58 1008.30 1008.43 1008.74 1009.02 1009.34 1009.74 1010.20 1010.56 1010.83 1010.68 1011.11 1011.70 1011.81 1011.10
997.00 997.56 997.94 998.54 999.17 998.94 999.14 998.82 997.56 997.02 996.87 997.26 997.83 998.85 999.50 1000.40 1001.86 1003.09 1004.16 1005.15 1006.12 1006.81 1007.34 1007.94 1008.27 1008.35 1008.46 1008.55 1008.67 1008.77 1009.05 1009.17 1009.33 1009.45 1009.47 1009.19 1009.20 1009.19 1009.45 1009.85 1010.04 1010.17 1010.33 1010.54 1010.71 1010.75 1010.76 1010.35 1010.06
996.80 997.43 997.95 998.48 998.44 998.01 998.53 998.30 997.66 997.45 997.15 996.40 998.01 999.18 1000.05 1001.33 1002.74 1004.00 1005.01 1005.72 1006.39 1006.86 1007.39 1008.01 1008.54 1008.80 1009.00 1009.13 1009.23 1009.43 1009.74 1009.87 1009.76 1009.86 1010.04 1010.35 1010.25 1010.12 1010.07 1010.32 1010.51 1010.68 1010.68 1010.71 1010.48 1010.43 1010.31 1010.22 1010.16
996.04 996.85 997.14 997.73 998.17 997.87 997.57 996.54 996.27 997.13 997.45 998.37 998.69 1000.51 1001.40 1002.44 1003.41 1004.19 1005.08 1006.02 1006.76 1007.23 1007.68 1008.16 1008.70 1009.09 1009.32 1009.46 1009.56 1009.72 1009.87 1010.01 1010.12 1010.36 1010.71 1011.03 1010.92 1010.71 1010.78 1010.87 1010.93 1010.99 1011.05 1011.16 1011.01 1010.68 1010.38 1010.17 1009.55
995.74 996.19 997.32 997.79 999.37 999.49 998.20 997.05 996.26 996.79 997.81 999.17 1000.21 1000.87 1002.03 1002.54 1003.16 1004.21 1005.23 1006.14 1006.94 1007.73 1008.29 1008.68 1008.96 1009.31 1009.55 1009.62 1009.78 1009.99 1010.36 1010.63 1010.80 1011.07 1011.12 1011.05 1011.18 1011.06 1011.04 1011.22 1011.08 1010.88 1010.82 1010.68 1010.43 1010.15 1010.02 1009.82 1009.45
995.15 996.25 997.12 997.80 1000.05 1000.23 999.47 999.17 998.40 998.28 998.71 999.71 1000.40 1001.19 1002.03 1002.88 1003.77 1004.55 1005.50 1006.50 1007.33 1007.91 1008.81 1009.19 1009.37 1009.56 1009.68 1009.81 1010.04 1010.29 1010.55 1010.76 1010.89 1011.00 1011.07 1011.17 1011.28 1011.16 1011.20 1011.13 1010.90 1010.57 1010.37 1010.23 1010.11 1010.14 1009.97 1009.87 1009.58
994.97 995.81 997.33 998.68 998.87 999.55 999.93 1001.58 1002.34 1000.86 1000.93 999.72 1000.83 1001.73 1002.45 1003.47 1003.94 1004.69 1005.74 1006.87 1007.51 1007.92 1008.57 1009.16 1009.41 1009.56 1009.69 1009.87 1010.10 1010.30 1010.51 1010.66 1010.86 1011.09 1011.16 1011.25 1011.36 1011.16 1011.00 1010.87 1010.80 1010.82 1010.71 1010.57 1010.58 1010.57 1010.34 1009.96 1009.91
994.81 995.53 997.37 998.78 999.40 1000.01 1000.39 1002.05 1002.34 1001.78 1002.42 1001.83 1002.73 1001.76 1002.80 1003.28 1003.81 1004.81 1005.71 1006.64 1007.29 1008.13 1008.69 1009.26 1009.68 1009.71 1009.76 1009.87 1010.05 1010.19 1010.41 1010.69 1010.92 1011.02 1011.07 1011.21 1011.25 1011.17 1011.17 1011.08 1010.96 1010.85 1010.69 1010.54 1010.45 1010.37 1010.28 1009.98 1009.42
Thickness
5792 5800 5804 5801 5768 5785 5786 5814 5857 5860 5859 5873 5870 5859 5856 5869 5848 5809 5874 5878 5881 5864 5859 5854 5851 5845 5842 5837 5834 5830 5827 5823 5820 5817 5814 5813 5811 5808 5807 5805 5801 5799 5797 5793 5790 5788 5785 5783 5782
5789 5799 5799 5787 5760 5761 5789 5834 5839 5865 5861 5861 5860 5862 5858 5835 5866 5858 5860 5873 5877 5862 5854 5849 5846 5844 5841 5837 5832 5830 5826 5823 5819 5816 5811 5809 5808 5805 5803 5801 5799 5797 5794 5791 5788 5786 5783 5781 5780
5780 5791 5775 5770 5764 5763 5788 5837 5860 5881 5866 5852 5845 5859 5857 5831 5857 5860 5872 5871 5869 5858 5853 5846 5842 5840 5838 5835 5832 5829 5825 5821 5818 5816 5812 5809 5805 5803 5800 5798 5797 5794 5792 5789 5787 5783 5781 5779 5777
5775 5777 5775 5760 5767 5797 5807 5835 5859 5861 5849 5845 5846 5834 5851 5858 5854 5863 5869 5869 5862 5854 5852 5842 5839 5837 5835 5833 5830 5827 5824 5820 5816 5813 5810 5807 5804 5801 5799 5796 5794 5793 5791 5789 5785 5782 5778 5776 5775
5769 5768 5748 5759 5772 5799 5825 5841 5857 5848 5846 5835 5840 5828 5827 5843 5861 5862 5861 5864 5857 5853 5845 5839 5835 5834 5831 5829 5827 5824 5821 5818 5814 5811 5808 5805 5802 5800 5797 5795 5793 5790 5787 5787 5786 5783 5780 5777 5773
5747 5756 5738 5747 5771 5803 5823 5837 5838 5839 5835 5836 5829 5827 5830 5845 5854 5857 5861 5858 5859 5853 5843 5834 5830 5827 5825 5823 5820 5818 5816 5813 5810 5808 5806 5803 5800 5798 5796 5794 5792 5788 5786 5784 5781 5779 5779 5778 5776
5742 5745 5741 5757 5772 5794 5819 5843 5833 5825 5817 5820 5834 5811 5831 5845 5848 5861 5860 5861 5856 5852 5843 5832 5826 5823 5819 5818 5816 5812 5810 5807 5806 5803 5801 5799 5797 5795 5794 5792 5790 5788 5785 5783 5782 5780 5776 5771 5771
5745 5743 5739 5760 5765 5779 5825 5833 5821 5805 5803 5833 5831 5801 5814 5823 5832 5854 5859 5856 5855 5848 5839 5827 5825 5821 5817 5813 5810 5807 5805 5802 5799 5797 5795 5794 5793 5792 5792 5791 5789 5787 5785 5783 5780 5779 5779 5777 5773
5753 5725 5731 5750 5765 5784 5821 5808 5807 5809 5800 5811 5817 5819 5824 5828 5823 5842 5843 5848 5846 5846 5841 5833 5822 5814 5811 5807 5802 5797 5794 5792 5792 5790 5789 5789 5789 5789 5788 5788 5788 5786 5784 5782 5780 5777 5775 5774 5774
5733 5727 5738 5764 5780 5785 5802 5800 5788 5779 5785 5786 5797 5815 5822 5818 5819 5824 5831 5835 5829 5836 5839 5834 5816 5807 5807 5806 5798 5796 5793 5790 5785 5784 5784 5785 5788 5789 5790 5789 5785 5785 5783 5781 5778 5776 5774 5773 5773
5734 5729 5747 5761 5777 5783 5778 5776 5781 5780 5772 5784 5783 5795 5806 5807 5810 5816 5830 5837 5833 5838 5827 5815 5815 5803 5805 5808 5793 5791 5789 5789 5787 5787 5783 5784 5787 5788 5789 5789 5784 5779 5778 5777 5777 5775 5772 5771 5771
5721 5740 5742 5755 5767 5765 5760 5772 5762 5773 5775 5790 5795 5800 5802 5803 5804 5811 5822 5832 5824 5818 5797 5782 5786 5774 5779 5792 5795 5791 5787 5788 5789 5788 5787 5786 5786 5790 5789 5789 5784 5782 5781 5776 5777 5776 5775 5773 5773
5726 5735 5743 5752 5757 5761 5762 5756 5757 5765 5776 5787 5789 5790 5792 5794 5802 5813 5823 5823 5811 5804 5786 5778 5734 5750 5768 5783 5793 5791 5789 5788 5789 5789 5789 5787 5785 5785 5786 5786 5784 5782 5782 5779 5778 5777 5775 5774 5771
5733 5734 5737 5746 5750 5751 5746 5751 5755 5763 5772 5775 5778 5780 5785 5790 5796 5806 5812 5809 5795 5792 5767 5770 5757 5759 5772 5769 5779 5782 5784 5785 5785 5785 5785 5779 5775 5775 5775 5773 5773 5774 5773 5775 5773 5774 5778 5778 5774
5730 5718 5730 5738 5739 5742 5750 5738 5745 5764 5771 5770 5773 5775 5778 5785 5794 5798 5804 5799 5783 5784 5773 5766 5757 5755 5743 5762 5763 5767 5776 5779 5774 5771 5770 5770 5768 5763 5753 5753 5753 5757 5761 5762 5766 5774 5774 5771 5772
5707 5712 5700 5732 5737 5741 5739 5721 5752 5769 5763 5761 5765 5768 5773 5779 5784 5792 5799 5793 5788 5785 5772 5758 5757 5758 5752 5763 5762 5766 5767 5768 5761 5760 5757 5760 5754 5748 5745 5741 5739 5749 5755 5757 5762 5765 5744 5734 5749
5697 5686 5697 5708 5739 5738 5733 5721 5753 5774 5761 5757 5759 5765 5770 5773 5780 5789 5794 5786 5780 5777 5768 5768 5765 5756 5756 5762 5763 5766 5766 5760 5751 5752 5748 5741 5743 5739 5724 5720 5719 5724 5738 5747 5755 5755 5733 5718 5739
5688 5686 5699 5703 5730 5742 5730 5722 5748 5760 5752 5750 5757 5763 5766 5768 5772 5782 5786 5781 5776 5774 5766 5766 5764 5766 5759 5756 5757 5759 5756 5752 5748 5748 5736 5732 5733 5731 5719 5705 5705 5716 5723 5728 5733 5741 5732 5720 5723
5699 5700 5700 5714 5737 5730 5724 5724 5738 5752 5748 5749 5751 5756 5760 5762 5770 5776 5778 5773 5770 5768 5762 5757 5757 5751 5748 5744 5738 5738 5738 5740 5742 5737 5735 5725 5720 5719 5714 5715 5716 5714 5715 5715 5703 5704 5706 5710 5711
5689 5690 5704 5716 5730 5729 5725 5717 5734 5747 5752 5750 5745 5751 5755 5759 5760 5763 5765 5765 5754 5751 5748 5749 5742 5738 5737 5734 5734 5732 5732 5735 5742 5739 5729 5722 5719 5715 5712 5711 5713 5706 5701 5694 5680 5675 5676 5684 5686
5682 5683 5696 5703 5719 5720 5709 5698 5709 5729 5742 5749 5747 5746 5751 5751 5746 5748 5746 5745 5741 5738 5737 5735 5733 5729 5727 5732 5731 5728 5726 5726 5727 5729 5722 5719 5717 5714 5710 5705 5702 5699 5696 5677 5652 5653 5663 5670 5681
5671 5695 5697 5694 5687 5677 5707 5671 5696 5710 5718 5735 5733 5734 5737 5743 5738 5731 5735 5726 5723 5720 5718 5719 5719 5719 5718 5721 5722 5717 5712 5711 5706 5709 5712 5708 5709 5709 5707 5702 5689 5689 5685 5676 5662 5670 5653 5664 5674
5682 5701 5691 5689 5680 5671 5678 5677 5695 5709 5698 5714 5722 5724 5732 5728 5725 5721 5720 5714 5711 5709 5705 5704 5705 5704 5704 5706 5707 5705 5702 5700 5700 5704 5704 5705 5703 5700 5694 5689 5684 5678 5672 5668 5669 5664 5658 5658 5667
5697 5687 5689 5686 5674 5650 5669 5669 5685 5705 5707 5714 5721 5718 5722 5715 5711 5710 5707 5703 5697 5696 5695 5693 5692 5692 5693 5692 5691 5690 5687 5688 5687 5687 5686 5690 5688 5687 5682 5677 5674 5670 5667 5662 5659 5659 5657 5663 5664
5681 5669 5647 5645 5650 5648 5683 5672 5686 5703 5714 5728 5713 5710 5708 5707 5701 5694 5689 5688 5688 5688 5687 5684 5681 5679 5680 5680 5679 5678 5676 5675 5676 5675 5673 5667 5667 5668 5668 5665 5662 5658 5657 5654 5653 5649 5648 5649 5650
5671 5668 5652 5630 5648 5663 5693 5676 5694 5711 5707 5703 5706 5693 5690 5689 5687 5686 5684 5680 5677 5677 5676 5675 5671 5668 5669 5669 5669 5669 5669 5667 5665 5662 5658 5653 5653 5654 5653 5651 5650 5647 5646 5642 5640 5641 5640 5638 5643
5669 5659 5681 5666 5652 5639 5670 5695 5719 5718 5699 5696 5688 5688 5678 5682 5684 5680 5676 5671 5669 5665 5662 5661 5660 5659 5658 5659 5659 5658 5656 5653 5651 5647 5647 5646 5643 5643 5641 5638 5638 5638 5636 5636 5637 5638 5636 5635 5638
5676 5686 5656 5665 5604 5615 5651 5655 5676 5689 5686 5685 5682 5678 5676 5674 5670 5670 5666 5661 5657 5655 5649 5648 5648 5648 5649 5648 5648 5647 5645 5643 5642 5640 5638 5636 5633 5632 5630 5629 5629 5631 5631 5630 5628 5623 5622 5622 5625
5666 5657 5652 5651 5656 5635 5640 5612 5632 5649 5655 5677 5677 5675 5669 5662 5660 5659 5655 5651 5648 5647 5644 5639 5639 5639 5639 5639 5639 5638 5636 5636 5633 5630 5628 5625 5622 5621 5620 5620 5619 5617 5616 5615 5611 5608 5608 5610 5607
5679 5668 5653 5627 5633 5645 5647 5623 5634 5649 5637 5661 5641 5662 5662 5661 5657 5653 5648 5645 5641 5636 5634 5632 5629 5630 5631 5631 5630 5631 5629 5626 5623 5620 5618 5614 5612 5611 5608 5607 5606 5604 5603 5603 5601 5599 5597 5597 5601